TIME,DELAY(SENSOR),PRES,T(CTD),SAL,OXYGEN,RAWTEMP,T(OPTODE),TCPHASE,FLUOR,BETA(BETA700),BETA(BETA412),BETA(BETA440),CDOM,C(CSC),ED(ED412.40),ED(ED444.00),ED(ED489.70),ED(ED554.30),LU(LU411.80),LU(LU443.40),LU(LU489.60),LU(LU554.10),COMP,TILTX,TILTX(TILTY),CHECK
1363470582,5809,497.5499877929687500,6.8494000434875490,34.1058006286621100,91.8386611938476600,592.3496704101562000,6.8311209678649900,47.4528694152832000,51,102,90,80,78,14726,2147751076,2147422281,2148008054,2147874084,2147628434,2147075364,2148245622,2147199689,3304,4,13,18657
1363470711,5808,486.0799865722656000,7.0675997734069820,34.0999984741210940,97.3622436523437500,585.5565795898438000,7.0498600006103520,46.7500114440918000,51,104,87,80,76,14725,2147749888,2147424539,2148006820,2147873444,2147627684,2147080274,2148245568,2147202148,2958,4,13,64513
1363470838,5809,475.2399902343750000,7.2385997772216800,34.1032981872558600,103.3562011718750000,580.0383300781250000,7.2272357940673830,46.0327301025390600,50,104,87,80,77,14722,2147746066,2147424356,2148008484,2147875428,2147626660,2147073188,2148242925,2147200475,239,4,13,35849
1363470979,5810,464.3099975585937500,7.4489002227783200,34.1064987182617200,107.1942977905273400,573.6187744140625000,7.4332327842712400,45.5337104797363300,51,103,91,79,77,14723,2147744356,2147426048,2148006070,2147874861,2147627986,2147081545,2148239515,2147203657,374,4,13,45302
1363471130,5807,454.0000000000000000,7.5728998184204100,34.1060981750488300,110.6724014282226600,569.8278808593750000,7.5547099113464355,45.1219711303710940,51,103,88,79,77,14724,2147746176,2147424548,2148003931,2147874432,2147623360,2147082861,2148235894,2147199945,3462,4,13,48094
1363471315,5812,441.3900146484375000,7.8498001098632810,34.0876998901367200,125.9592971801757800,561.1157226562500000,7.8334140777587890,43.5111503601074200,50,103,89,79,76,14721,2147740909,2147421568,2148004772,2147875245,2147622208,2147080475,2148240384,2147199725,1592,4,13,58050
1363471442,5809,430.6600036621094000,8.0347003936767580,34.0881004333496100,134.5289001464843800,555.4544067382812000,8.0141696929931640,42.6410408020019500,51,105,87,80,75,14723,2147744320,2147426779,2148005952,2147873526,2147624128,2147085284,2148232109,2147197924,1752,4,13,12134
1363471583,5806,419.1700134277344000,8.2279996871948240,34.0870018005371100,143.1535034179687500,549.1422729492188000,8.2153902053833000,41.7903900146484400,50,105,87,79,74,14724,2147742226,2147426304,2148005110,2147875062,2147622738,2147082038,2148237248,2147199405,2881,4,13,42417
1363471722,5757,408.3999938964844000,8.6576995849609380,34.0856018066406250,154.3106994628906200,535.6729736328125000,8.6436805725097660,40.6465797424316400,50,104,88,81,73,14722,2147742857,2147426267,2148006756,2147870546,2147619309,2147084900,2148229997,2147202368,316,4,13,21167
1363471881,5811,396.0299987792969000,8.8185997009277340,34.0942993164062500,160.5307006835937500,529.5214843750000000,8.8388023376464840,40.0547981262207000,50,104,88,80,73,14723,2147741467,2147425673,2148006354,2147873810,2147617526,2147094528,2148235629,2147203081,734,3,13,61263
1363471997,5808,384.8999938964844000,9.2779998779296880,34.0973014831543000,170.2055053710937500,516.5053100585938000,9.2507143020629880,39.1063385009765600,50,103,85,80,72,14721,2147738139,2147425746,2148005613,2147872402,2147616100,2147089462,2148229622,2147201819,564,3,13,2138
1363472112,5810,373.3099975585937500,9.5438995361328120,34.1025009155273440,181.5950927734375000,505.7330017089844000,9.5906686782836910,38.1178703308105500,49,104,91,79,72,14722,2147741641,2147429696,2148003977,2147873261,2147613723,2147094518,2148229549,2147204681,294,4,13,97
1363472229,5811,361.2699890136719000,9.8675003051757810,34.1116981506347660,191.5319061279297000,497.2432861328125000,9.8580055236816400,37.3122901916503900,49,105,88,80,71,14724,2147737490,2147426761,2148008137,2147874349,2147609645,2147100516,2148227035,2147202971,3365,3,13,38860
1363472344,5808,349.0899963378906000,10.1482000350952150,34.1118011474609400,197.2624053955078000,487.8327941894531000,10.1537599563598630,36.7892684936523440,49,103,87,79,70,14728,2147736722,2147427986,2148008722,2147876699,2147610386,2147102692,2148225883,2147203328,2995,4,13,60541
1363472447,5808,338.1900024414062500,10.4152002334594730,34.1175003051757800,202.1118927001953000,479.7597961425781000,10.4070100784301760,36.3543815612793000,48,104,87,81,71,14722,2147737526,2147426953,2148008109,2147870701,2147607817,2147105709,2148225270,2147209938,2322,3,13,9439
1363472566,5809,327.3599853515625000,10.7795000076293950,34.1404991149902340,207.6900939941406200,468.0602111816406000,10.7732801437377930,35.8252792358398440,48,102,89,80,69,14730,2147732553,2147427721,2148013339,2147875145,2147612178,2147103469,2148229046,2147207314,2146,3,14,40626
1363472729,5805,317.5599975585937500,11.1138000488281250,34.1688995361328100,223.9635009765625000,457.4971008300781000,11.1032495498657230,34.7319602966308600,48,102,85,80,70,14731,2147733339,2147429586,2148015286,2147872941,2147608411,2147109065,2148222820,2147207817,1952,3,14,58550
1363472933,5805,306.0899963378906000,11.6466999053955080,34.1403007507324200,216.9127960205078000,440.3619995117187500,11.6371402740478520,34.8448295593261700,49,104,89,78,68,14725,2147731858,2147432356,2148025005,2147873883,2147607771,2147110299,2148228370,2147206756,954,3,14,27987
1363473140,5809,292.6499938964844000,12.4643001556396480,34.1790008544921900,214.3502960205078000,413.7651977539062500,12.4627199172973630,34.5679512023925800,48,102,87,80,69,14721,2147729901,2147432758,2148028416,2147872091,2147599012,2147127433,2148218852,2147204891,990,3,13,21550
1363473267,5808,280.5899963378906000,13.0345001220703120,34.2104988098144500,215.0410003662109400,396.2641906738281000,13.0040998458862300,34.2566108703613300,48,100,87,79,67,14719,2147728493,2147439497,2148042048,2147875995,2147595346,2147125869,2148223094,2147208685,1947,4,14,32811
1363473370,5807,270.0599975585937500,13.1948995590209960,34.2281990051269500,217.2019958496093800,390.1644897460937500,13.1924800872802730,34.0418701171875000,48,100,85,81,67,14722,2147723282,2147444004,2148059675,2147873581,2147595081,2147132169,2148237915,2147209737,3031,3,14,29598
1363473487,5808,258.7300109863281000,14.3697004318237300,34.3413009643554700,221.6246032714843800,351.2428894042969000,14.3911104202270500,33.2122497558593750,49,101,84,79,67,14720,2147728018,2147453056,2148079305,2147874212,2147593435,2147139949,2148239424,2147211200,554,4,14,876
1363473602,5809,248.5599975585937500,15.1461000442504880,34.4314002990722660,224.6231994628906200,327.4404907226562500,15.1216897964477540,32.7026596069335940,49,100,88,79,66,14723,2147725942,2147465097,2148100964,2147873536,2147591707,2147159067,2148246034,2147215835,1137,4,14,36923
1363473731,5809,236.9499969482422000,15.5333995819091800,34.4746017456054700,224.2821044921875000,314.2449951171875000,15.5260696411132810,32.5292091369628900,48,101,88,80,66,14715,2147728320,2147492096,2148163657,2147872045,2147589001,2147176877,2148270665,2147214802,1990,3,14,26602
1363473858,5809,226.0200042724609400,16.2381000518798830,34.5639991760253900,222.3063049316406200,291.3323059082031000,16.2273693084716800,32.3035392761230500,50,102,87,80,66,14719,2147731803,2147534893,2148252653,2147874112,2147585755,2147200649,2148315968,2147220004,1185,3,14,11628
1363473997,5808,215.3999938964843800,16.9680995941162100,34.6464996337890600,217.9580993652343800,266.8727111816406000,16.9750995635986330,32.1871604919433600,49,103,87,80,66,14710,2147742628,2147594651,2148374034,2147873819,2147588480,2147244681,2148375149,2147226093,350,2,14,37536
1363474150,5808,204.5399932861328000,17.7488994598388670,34.7537002563476560,215.6165924072265600,242.0065002441406200,17.7346801757812500,31.9637603759765620,49,106,87,80,65,14708,2147765531,2147683108,2148551067,2147874697,2147591579,2147306523,2148454162,2147231149,2384,3,15,40645
1363474241,5811,197.9799957275390600,18.2068004608154300,34.8278007507324200,218.1170959472656200,226.4920959472656200,18.2084598541259770,31.6152496337890620,50,106,87,80,65,14701,2147789129,2147757211,2148690212,2147875428,2147600393,2147359396,2148528054,2147235776,2492,2,15,29458
1363474296,5809,194.0500030517578000,18.4629993438720700,34.8722000122070300,219.1909027099609400,217.9759979248047000,18.4685306549072270,31.4419898986816400,51,106,89,80,65,14700,2147806473,2147799323,2148770688,2147875894,2147605750,2147389193,2148569508,2147240182,2791,2,15,50859
1363474351,5810,190.3300018310547000,18.5618000030517580,34.8885002136230500,220.2592926025390600,215.1013031005859400,18.5563201904296880,31.3465690612792970,52,108,88,79,64,14700,2147821394,2147852315,2148863451,2147874468,2147613878,2147425142,2148617216,2147243529,2557,2,15,53196
1363474426,5807,185.6000061035156200,18.5958003997802730,34.8933982849121100,220.6912994384765600,213.6558990478515600,18.6004695892334000,31.3044109344482420,52,104,89,81,65,14701,2147845787,2147915126,2148972662,2147878555,2147626614,2147472274,2148675392,2147248649,2305,3,15,39081
1363474481,5809,182.5700073242187500,19.0130004882812500,34.9482994079589840,219.7660980224609400,201.6622924804687500,18.9668006896972660,31.1889095306396500,52,104,90,82,65,14694,2147860964,2147956809,2149038857,2147877622,2147633810,2147490258,2148706276,2147251136,2554,2,15,51061
1363474572,5809,178.8000030517578000,19.4211997985839840,35.0185012817382800,220.8471984863281200,188.7845001220703000,19.3602600097656250,30.9589099884033200,56,107,89,81,64,14695,2147885796,2148006811,2149124278,2147875940,2147643776,2147533220,2148751872,2147257453,2937,2,15,37066
1363474687,5809,174.8999938964843800,19.4580993652343750,35.0307998657226560,222.7617034912109400,185.7566986083984400,19.4527893066406250,30.8199596405029300,56,111,88,82,63,14692,2147925540,2148085970,2149271680,2147876224,2147661449,2147592256,2148821156,2147262281,45,3,15,30166
1363474804,5809,170.8600006103515600,19.5179996490478500,35.0419006347656250,223.2554931640625000,183.7115936279297000,19.5153007507324220,30.7673492431640620,58,108,87,79,63,14693,2147969856,2148172086,2149421376,2147881920,2147682578,2147652260,2148903835,2147268059,310,2,15,51727
1363474919,5808,166.7700042724609400,19.7269992828369140,35.0742988586425800,223.3186035156250000,177.1669006347656200,19.7153606414794920,30.6764698028564450,60,108,87,80,62,14686,2148023232,2148277156,2149603538,2147883108,2147710006,2147721170,2149004681,2147273353,3364,2,16,1320
1363475010,5807,162.8399963378906200,19.8680000305175780,35.0928001403808600,223.8874969482422000,172.5213012695312500,19.8574008941650400,30.5856399536132800,62,110,90,82,62,14683,2148077613,2148373357,2149756114,2147881179,2147734390,2147776402,2149074148,2147276891,2984,2,15,61358
1363475085,5808,158.6799926757812500,20.1895008087158200,35.1307983398437500,223.1696014404297000,161.6454925537109400,20.1900691986084000,30.4774608612060550,70,115,90,82,63,14673,2148157238,2148513618,2149976694,2147884333,2147771227,2147870811,2149182235,2147287195,2674,2,15,47913
1363475140,5810,155.3399963378906200,20.2772998809814450,35.1456985473632800,224.1130065917968800,159.0384979248047000,20.2698402404785160,30.3952598571777340,78,119,89,83,62,14669,2148230381,2148642432,2150182656,2147886070,2147810404,2147944475,2149273380,2147290532,2449,2,15,33052
1363475207,5806,151.6699981689453000,20.3556995391845700,35.1544990539550800,224.2194976806640600,155.0630950927734400,20.3915100097656250,30.3372802734375000,79,115,89,83,62,14666,2148340032,2148831241,2150477842,2147889216,2147854985,2148052681,2149416740,2147306057,1721,1,16,5773
1363475298,5808,148.0000000000000000,20.5312995910644530,35.1711997985839840,224.7852020263672000,150.9871978759765600,20.5162906646728500,30.2554702758789060,82,119,87,84,60,14659,2148465892,2149018130,2150749888,2147893933,2147910080,2148154386,2149521856,2147311981,1545,2,16,63862
1363475427,5806,143.9799957275390600,20.5916004180908200,35.1791000366210940,225.2924957275390600,148.6257934570312500,20.5885906219482420,30.1990699768066400,86,118,88,82,62,14657,2148619958,2149175195,2150937298,2147895478,2147968795,2148215506,2149579446,2147319734,2610,2,16,28059
1363475554,5805,140.1000061035156200,20.8848991394042970,35.2015991210937500,225.3580932617187500,139.1853027343750000,20.8777694702148440,30.0716800689697270,95,122,88,82,63,14648,2148842633,2149490752,2151387766,2147900150,2148063378,2148369353,2149762816,2147335314,2213,2,16,24419
1363475704,5808,135.3999938964843800,21.2325000762939450,35.2198982238769500,225.7548065185547000,127.6430969238281200,21.2316207885742200,29.9014701843261720,103,124,93,82,61,14636,2149137837,2149866121,2151896676,2147907739,2148180745,2148531236,2149947245,2147352914,1253,2,16,20506
1363475795,5808,131.1999969482422000,21.3787002563476560,35.2238998413085940,226.3045959472656200,122.6267013549804700,21.3855094909667970,29.8090305328369140,101,125,89,83,61,14628,2149626587,2150512740,2152808950,2147918820,2148375515,2148841362,2150321042,2147382409,725,2,16,4085
1363475874,5806,127.2500000000000000,21.5088996887207030,35.2322998046875000,227.4360961914062500,118.8030014038086000,21.5028591156005860,29.7039394378662100,109,127,92,84,60,14624,2150054427,2151040841,2153501961,2147932105,2148558043,2149084845,2150605961,2147406866,1390,2,16,20861
1363475953,5809,123.0999984741211000,21.5916004180908200,35.2372016906738300,227.9591064453125000,116.1570968627929700,21.5840892791748050,29.6441593170166000,110,126,88,83,61,14621,2150639424,2151728978,2154412333,2147947492,2148802724,2149428480,2150978459,2147443035,828,2,15,29398
1363476022,5808,119.6200027465820300,21.7978992462158200,35.2565994262695300,228.5202941894531200,110.4392013549804700,21.7596893310546880,29.5431709289550780,111,125,93,83,59,14616,2151106176,2152234669,2155019456,2147958848,2149005001,2149679643,2151244800,2147470226,339,2,15,38709
1363476113,5808,115.8600006103515600,21.9731006622314450,35.2811012268066400,229.8784027099609400,105.4476013183593800,21.9130706787109380,29.4134101867675780,116,126,88,83,61,14605,2152220790,2153647616,2156959442,2147994404,2149511085,2150381769,2152059218,2147543414,852,2,16,7474
1363476240,5818,112.1800003051757800,22.1413002014160160,35.3188018798828100,232.6004943847656200,98.4161071777343800,22.1292705535888670,29.1933307647705080,124,125,91,84,60,14598,2153541677,2155280146,2159091117,2148044288,2150187392,2151222180,2152979547,2147624493,1827,2,16,1972
1363476378,5809,108.0699996948242200,22.3418998718261720,35.3377990722656250,235.3607025146484400,92.4891891479492200,22.3116397857666000,28.9882297515869140,124,129,91,84,59,14583,2155650194,2157825078,2162378486,2148117074,2151350272,2152579638,2154427108,2147751433,2459,2,16,30913
1363476481,5804,103.9599990844726600,22.5554008483886720,35.3474998474121100,237.3005981445312500,85.3215103149414000,22.5323390960693360,28.8075904846191400,122,127,92,84,59,14580,2157324452,2159681298,2164481709,2148176658,2152305362,2153597403,2155395154,2147845202,3296,2,16,30814
1363476596,5808,99.9700012207031200,22.6993007659912100,35.3400993347168000,240.2469024658203000,80.0443725585937500,22.6949596405029300,28.6063308715820300,122,127,90,84,59,14576,2159065755,2161716461,2166713426,2148256950,2153394605,2154690825,2156442550,2147949348,3563,1,16,51875
1363476674,5811,97.0699996948242200,22.7642993927001950,35.3521003723144500,241.2133026123047000,78.0334625244140600,22.7569503784179700,28.5376091003417970,107,124,89,86,59,14573,2161023012,2163984731,2169216512,2148350189,2154557312,2155991177,2157727798,2148075437,2248,1,15,59175
1363476729,5808,94.4899978637695300,22.7828998565673830,35.3544998168945300,241.6773986816406200,77.1922912597656200,22.7828903198242200,28.5058994293212900,104,124,90,84,59,14579,2162632649,2165851227,2171204004,2148436626,2155535405,2157022217,2158676873,2148171227,3109,2,16,32739
1363476784,5810,91.7900009155273400,22.8390998840332030,35.3498001098632800,242.1224060058593800,75.6131210327148400,22.8315906524658200,28.4662609100341800,95,125,93,84,58,14579,2164368000,2167811044,2173181357,2148530733,2156678866,2158277888,2159833920,2148283254,3191,2,15,17551
1363476839,5808,89.0400009155273400,22.8372993469238280,35.3428993225097660,242.3818969726562500,75.4704208374023400,22.8359909057617200,28.4528198242187500,99,124,90,83,58,14578,2166979328,2170706962,2176141019,2148686985,2158347684,2160091227,2161506870,2148453824,194,2,15,2135
1363476894,5809,86.1200027465820300,22.8215007781982420,35.3142013549804700,241.9687042236328000,75.9057083129882800,22.8225708007812500,28.4767704010009770,96,124,90,85,58,14575,2169610340,2173636342,2179067291,2148822125,2159838564,2161731318,2162914304,2148599734,715,2,15,48692
1363476949,5807,83.2500000000000000,22.8771991729736330,35.3097000122070300,241.5932006835937500,74.1228637695312500,22.8775596618652340,28.4712905883789060,91,128,92,85,57,14566,2173188480,2177476918,2182887625,2149072466,2161840868,2163942043,2164903890,2148823945,588,1,15,10910
1363477006,5812,80.3000030517578100,22.9405002593994140,35.3180007934570300,242.0099945068359400,72.0849990844726600,22.9404296875000000,28.4269294738769530,86,125,89,84,59,14573,2176237129,2180610148,2185803693,2149277046,2163836306,2166039433,2166650029,2149013403,130,2,16,45939
1363477061,5807,77.4300003051757800,22.9825992584228500,35.3214988708496100,242.5726928710937500,70.7878036499023400,22.9804592132568360,28.3856201171875000,80,125,93,85,60,14571,2178759460,2182995675,2187703387,2149495597,2165781805,2168020050,2168145956,2149183862,3511,2,16,37690
1363477116,5809,74.5199966430664000,23.0065994262695300,35.3235015869140600,243.0803985595703000,69.9684600830078100,23.0057506561279300,28.3527107238769530,78,125,93,86,57,14573,2184644507,2189194112,2193888374,2150055844,2169681216,2172103588,2171531638,2149575734,3289,2,16,9912
1363477171,5808,71.5199966430664000,23.0422000885009770,35.3232002258300800,243.4154052734375000,68.7018432617187500,23.0448493957519530,28.3220291137695300,76,127,93,84,59,14565,2189172306,2193821056,2198137654,2150448640,2173249691,2175842642,2174537124,2149880228,3021,1,16,47664
1363477226,5808,68.6100006103515600,23.0779991149902340,35.3241004943847660,243.7239074707031200,67.6998672485351600,23.0757808685302730,28.2957000732421880,76,125,91,83,57,14568,2192115300,2196538258,2200195273,2150864054,2175813211,2178121709,2175957577,2150109732,2388,1,16,18669
1363477281,5808,65.7200012207031200,23.0974998474121100,35.3245010375976560,243.9257049560547000,67.0537261962890600,23.0957298278808600,28.2786293029785160,75,126,93,85,57,14564,2199303332,2204209472,2207846336,2151603520,2181225764,2183722102,2180446601,2150645046,2033,2,16,48328
1363477338,5808,62.6599998474121100,23.1198005676269530,35.3260002136230500,244.2615051269531200,66.2809066772461000,23.1195907592773440,28.2542591094970700,74,124,92,84,57,14555,2205880612,2210747776,2214044443,2152535561,2186812160,2189269348,2184687506,2151193947,2113,1,16,59280
1363477393,5809,59.7000007629394500,23.1446990966796880,35.3278999328613300,244.4631042480468800,65.3641204833984400,23.1479091644287100,28.2340202331542970,72,124,93,85,58,14556,2213056329,2218067602,2221207643,2153588635,2192541750,2194869092,2188806902,2151761133,2107,1,16,4216
1363477448,5813,56.8699989318847660,23.1937999725341800,35.3344993591308600,244.5888977050781200,63.8945083618164060,23.1933002471923830,28.2099494934082030,71,124,91,85,55,14548,2223510619,2228661037,2231627401,2155445120,2201608758,2203857462,2195781924,2152731629,1800,1,16,33451
1363477503,5811,54.2200012207031250,23.2509994506835940,35.3420982360839840,244.7050018310547000,62.0028915405273440,23.2517395019531250,28.1813392639160160,68,125,93,83,59,14550,2230722139,2235695168,2238251428,2156815387,2207710262,2209578505,2199751506,2153353536,1321,1,16,29318
1363477558,5807,51.7599983215332000,23.3285007476806640,35.3506011962890600,244.8222961425781200,59.5901298522949200,23.3262996673584000,28.1460990905761720,67,124,91,83,57,14546,2241250496,2246203958,2249170742,2158768192,2217458916,2219048905,2206903542,2154312886,662,1,16,55450
1363477613,5811,49.4900016784668000,23.3577995300292970,35.3566017150878900,245.0140075683593800,58.4593315124511700,23.3612594604492200,28.1236896514892580,62,123,92,86,58,14545,2242604745,2246676041,2249103469,2159936758,2222460187,2223283236,2209454089,2154793536,56,2,16,6058
1363477670,5807,47.1899986267089840,23.3885002136230470,35.3642997741699200,245.2590942382812500,57.4942398071289060,23.3910903930664060,28.1009101867675780,61,124,91,85,56,14547,2245395190,2248965760,2251008100,2161621440,2227550180,2227090980,2211250669,2155231222,3281,2,16,33528
1363477725,5806,45.0200004577636700,23.3887004852294920,35.3604011535644500,245.5756988525390600,57.3822212219238300,23.3945598602294920,28.0856208801269530,60,124,91,86,55,14544,2258677202,2263398966,2266533677,2165036909,2239637970,2238723200,2219813494,2156590354,3185,2,16,41757
1363477780,5807,42.9000015258789060,23.3906002044677730,35.3602981567382800,245.6074066162109400,57.2910499572753900,23.3973808288574220,28.0829200744628900,60,124,93,86,55,14550,2245267291,2247790409,2248977490,2163399643,2232611538,2229838912,2211341622,2155711241,2869,1,16,19241
1363477835,5808,40.7900009155273440,23.4027996063232420,35.3619003295898440,245.6405029296875000,56.9226493835449200,23.4087696075439450,28.0769996643066400,61,124,93,85,55,14547,2249966756,2252239945,2252896210,2165286857,2241407670,2237636260,2216394477,2156553782,2476,2,16,49530
1363477890,5807,38.7200012207031250,23.4225006103515620,35.3615989685058600,245.5641937255859400,56.2579116821289060,23.4293193817138670,28.0720901489257800,59,125,93,83,58,14547,2270435328,2274370084,2276424722,2172020022,2263647469,2259294564,2232693869,2159365906,2217,1,16,28554
1363477945,5807,36.5699996948242200,23.4377002716064450,35.3585014343261700,245.4618988037109400,55.7642097473144500,23.4445896148681640,28.0704307556152340,57,123,92,86,58,14544,2284036918,2288447506,2291254427,2177207259,2278305609,2272740918,2242235382,2161226422,2312,2,17,10339
1363478023,5810,32.9300003051757800,23.4650001525878900,35.3549003601074200,245.1786041259765600,54.9162483215332000,23.4708194732666000,28.0724296569824220,56,124,90,86,57,14541,2304572836,2309489334,2312798235,2186649289,2308819035,2300479588,2261665536,2165271433,2365,2,17,47867
1363478078,5810,29.8500003814697270,23.4720001220703120,35.3548011779785160,245.0437927246093800,54.6461906433105500,23.4791698455810550,28.0748901367187500,54,125,93,86,55,14546,2311398875,2316052150,2319707291,2195602368,2324051428,2313267300,2269842532,2167826697,2296,2,16,52515
1363478133,5807,26.6700000762939450,23.4806003570556640,35.3540000915527340,244.8713989257812500,54.3738708496093750,23.4875907897949220,28.0790596008300780,54,124,91,85,56,14546,2330279259,2336236068,2341547136,2209979840,2348269878,2335116681,2285081033,2172507081,2195,1,15,60737
1363478188,5807,23.3500003814697270,23.4857997894287100,35.3532981872558600,244.7989959716797000,54.2358894348144500,23.4918594360351560,28.0804691314697270,54,123,93,85,58,14538,2366167469,2375039405,2383399625,2232565878,2392659117,2375862957,2314201344,2179777289,2083,1,16,59355
